Cedar Creek (Missouri), Pleasant View (06919500)

StateMissouriLatestPoor (83 cfs)
RiverCedar CreekRatingObservedEstimated
Updated2026-05-10 7:30 (1 hour ago)Flood - The river is flooding. Obstacles can be treacherous or deadly. The river should be avoided at this stage for casual trips and definitely for the inexperienced. Trips should be attempted only with protective gear and equipment.Flood(none)1844
Discharge83 cfs (median: 185 cfs)High - The river is high and potentially dangerous, especially for the young and / or inexperienced. Normal stream obstacles are sometimes difficult to navigate. Extended distances can be attempted, but canoe travel may not be advisable.High(none)478
Height3.74 feetGood - Conditions are ideal for a canoe or kayak. Boats typically will drag on fewer than one-quarter of riffles, if at all, and portages are unnecessary or rare. Normal float lengths can be attempted without a problem.Good(none)165
TrendFalling (falling over 24 hours)Low - River is low but can still be floated. Some riffles are okay but most come with significant dragging and might need a portage. Float lengths should be reduced to accommodate low flow, dragging, and portages.Low(none)88
USGSExternal icon USGS Site (External icon Duck Duck Go Maps)Poor - River is too low to float comfortably. Most or all riffles will drag or must be portaged and some obstacles (such as slick shelf rock) cause undue problems. Avoid the river at this stage for casual paddling trips.Poor(none)6

Trending Data

Plot Image

Trips for Cedar Creek (Missouri), Pleasant View (06919500)

DateStartEndDistanceConditionDischargeHeightFishingDetails

A total of 0 rows are displayed.

Condition Descriptions

Fishing Conditions

Fish Species

Notes

Classic Trip List

The classic River Trips application is still available for use. It is updated with the new system using a data retrofit. It is no longer maintained. The original River Trips application is no longer updated (as of 1 Dec 2016) but can be checked for errors or for the condition of the data before it was converted to the new system.

Gauge Data Table

ObservationHeightDischargeMaximum
Discharge
Minimum
Discharge
Mean
Discharge
P05P10P20P25P50
(Median)
P75P80P90P95
2026-05-10 07:30 3.74 83 8400 (2002) 9 (1981) 678 25 40 53 58 185 461 675 1760 4640
2026-05-10 06:30 3.75 84 8400 (2002) 9 (1981) 678 25 40 53 58 185 461 675 1760 4640
2026-05-10 05:30 3.75 84 8400 (2002) 9 (1981) 678 25 40 53 58 185 461 675 1760 4640
2026-05-10 04:30 3.76 85 8400 (2002) 9 (1981) 678 25 40 53 58 185 461 675 1760 4640
2026-05-10 03:30 3.77 87 8400 (2002) 9 (1981) 678 25 40 53 58 185 461 675 1760 4640
2026-05-10 02:30 3.77 87 8400 (2002) 9 (1981) 678 25 40 53 58 185 461 675 1760 4640
2026-05-10 01:30 3.78 88 8400 (2002) 9 (1981) 678 25 40 53 58 185 461 675 1760 4640
2026-05-10 00:30 3.79 89 8400 (2002) 9 (1981) 678 25 40 53 58 185 461 675 1760 4640
2026-05-09 23:30 3.80 90 8400 (2002) 9 (1981) 678 25 40 53 58 185 461 675 1760 4640
2026-05-09 22:30 3.80 90 12800 (2009) 7 (1981) 988 26 40 54 58 183 529 798 2700 8740
2026-05-09 21:30 3.81 92 12800 (2009) 7 (1981) 988 26 40 54 58 183 529 798 2700 8740
2026-05-09 20:30 3.82 93 12800 (2009) 7 (1981) 988 26 40 54 58 183 529 798 2700 8740
2026-05-09 19:30 3.83 95 12800 (2009) 7 (1981) 988 26 40 54 58 183 529 798 2700 8740
2026-05-09 18:30 3.84 96 12800 (2009) 7 (1981) 988 26 40 54 58 183 529 798 2700 8740
2026-05-09 17:30 3.86 99 12800 (2009) 7 (1981) 988 26 40 54 58 183 529 798 2700 8740
2026-05-09 16:30 3.87 100 12800 (2009) 7 (1981) 988 26 40 54 58 183 529 798 2700 8740
2026-05-09 15:30 3.88 102 12800 (2009) 7 (1981) 988 26 40 54 58 183 529 798 2700 8740
2026-05-09 14:30 3.90 104 12800 (2009) 7 (1981) 988 26 40 54 58 183 529 798 2700 8740
2026-05-09 13:30 3.91 106 12800 (2009) 7 (1981) 988 26 40 54 58 183 529 798 2700 8740
2026-05-09 12:30 3.93 109 12800 (2009) 7 (1981) 988 26 40 54 58 183 529 798 2700 8740
2026-05-09 11:30 3.95 112 12800 (2009) 7 (1981) 988 26 40 54 58 183 529 798 2700 8740
2026-05-09 10:30 3.97 115 12800 (2009) 7 (1981) 988 26 40 54 58 183 529 798 2700 8740
2026-05-09 09:30 3.98 117 12800 (2009) 7 (1981) 988 26 40 54 58 183 529 798 2700 8740
2026-05-09 08:30 3.99 118 12800 (2009) 7 (1981) 988 26 40 54 58 183 529 798 2700 8740
2026-05-09 07:30 4.00 120 12800 (2009) 7 (1981) 988 26 40 54 58 183 529 798 2700 8740
2026-05-09 06:30 3.99 118 12800 (2009) 7 (1981) 988 26 40 54 58 183 529 798 2700 8740
2026-05-09 05:30 3.97 115 12800 (2009) 7 (1981) 988 26 40 54 58 183 529 798 2700 8740
2026-05-09 04:30 3.94 110 12800 (2009) 7 (1981) 988 26 40 54 58 183 529 798 2700 8740
2026-05-09 03:30 3.91 106 12800 (2009) 7 (1981) 988 26 40 54 58 183 529 798 2700 8740
2026-05-09 02:30 3.90 104 12800 (2009) 7 (1981) 988 26 40 54 58 183 529 798 2700 8740
2026-05-09 01:30 3.89 103 12800 (2009) 7 (1981) 988 26 40 54 58 183 529 798 2700 8740
2026-05-09 00:30 3.87 100 12800 (2009) 7 (1981) 988 26 40 54 58 183 529 798 2700 8740
2026-05-08 23:30 3.84 96 12800 (2009) 7 (1981) 988 26 40 54 58 183 529 798 2700 8740
2026-05-08 22:30 3.83 95 9290 (1961) 3 (1956) 1050 17 31 51 59 164 601 825 5070 7020
2026-05-08 21:30 3.82 93 9290 (1961) 3 (1956) 1050 17 31 51 59 164 601 825 5070 7020
2026-05-08 20:30 3.81 92 9290 (1961) 3 (1956) 1050 17 31 51 59 164 601 825 5070 7020
2026-05-08 19:30 3.77 87 9290 (1961) 3 (1956) 1050 17 31 51 59 164 601 825 5070 7020
2026-05-08 18:30 3.77 87 9290 (1961) 3 (1956) 1050 17 31 51 59 164 601 825 5070 7020
2026-05-08 17:30 3.77 87 9290 (1961) 3 (1956) 1050 17 31 51 59 164 601 825 5070 7020
2026-05-08 16:30 3.77 87 9290 (1961) 3 (1956) 1050 17 31 51 59 164 601 825 5070 7020
2026-05-08 15:30 3.77 87 9290 (1961) 3 (1956) 1050 17 31 51 59 164 601 825 5070 7020
2026-05-08 14:30 3.78 88 9290 (1961) 3 (1956) 1050 17 31 51 59 164 601 825 5070 7020
2026-05-08 13:30 3.78 88 9290 (1961) 3 (1956) 1050 17 31 51 59 164 601 825 5070 7020
2026-05-08 12:30 3.78 88 9290 (1961) 3 (1956) 1050 17 31 51 59 164 601 825 5070 7020
2026-05-08 11:30 3.78 88 9290 (1961) 3 (1956) 1050 17 31 51 59 164 601 825 5070 7020
2026-05-08 10:30 3.79 89 9290 (1961) 3 (1956) 1050 17 31 51 59 164 601 825 5070 7020
2026-05-08 09:30 3.79 89 9290 (1961) 3 (1956) 1050 17 31 51 59 164 601 825 5070 7020
2026-05-08 08:30 3.79 89 9290 (1961) 3 (1956) 1050 17 31 51 59 164 601 825 5070 7020
2026-05-08 07:30 3.79 89 9290 (1961) 3 (1956) 1050 17 31 51 59 164 601 825 5070 7020
2026-05-08 06:30 3.80 90 9290 (1961) 3 (1956) 1050 17 31 51 59 164 601 825 5070 7020
2026-05-08 05:30 3.80 90 9290 (1961) 3 (1956) 1050 17 31 51 59 164 601 825 5070 7020
2026-05-08 04:30 3.80 90 9290 (1961) 3 (1956) 1050 17 31 51 59 164 601 825 5070 7020
2026-05-08 03:30 3.80 90 9290 (1961) 3 (1956) 1050 17 31 51 59 164 601 825 5070 7020
2026-05-08 02:30 3.81 92 9290 (1961) 3 (1956) 1050 17 31 51 59 164 601 825 5070 7020
2026-05-08 01:30 3.81 92 9290 (1961) 3 (1956) 1050 17 31 51 59 164 601 825 5070 7020
2026-05-08 00:30 3.81 92 9290 (1961) 3 (1956) 1050 17 31 51 59 164 601 825 5070 7020
2026-05-07 23:30 3.82 93 9290 (1961) 3 (1956) 1050 17 31 51 59 164 601 825 5070 7020
2026-05-07 22:30 3.82 93 11600 (1961) 3 (1956) 933 19 34 56 61 174 549 803 2580 6640
2026-05-07 21:30 3.82 93 11600 (1961) 3 (1956) 933 19 34 56 61 174 549 803 2580 6640
2026-05-07 20:30 3.82 93 11600 (1961) 3 (1956) 933 19 34 56 61 174 549 803 2580 6640
2026-05-07 19:30 3.83 95 11600 (1961) 3 (1956) 933 19 34 56 61 174 549 803 2580 6640
2026-05-07 18:30 3.84 96 11600 (1961) 3 (1956) 933 19 34 56 61 174 549 803 2580 6640
2026-05-07 17:30 3.84 96 11600 (1961) 3 (1956) 933 19 34 56 61 174 549 803 2580 6640
2026-05-07 16:30 3.84 96 11600 (1961) 3 (1956) 933 19 34 56 61 174 549 803 2580 6640
2026-05-07 15:30 3.84 96 11600 (1961) 3 (1956) 933 19 34 56 61 174 549 803 2580 6640
2026-05-07 14:30 3.85 97 11600 (1961) 3 (1956) 933 19 34 56 61 174 549 803 2580 6640
2026-05-07 13:30 3.85 97 11600 (1961) 3 (1956) 933 19 34 56 61 174 549 803 2580 6640
2026-05-07 12:30 3.86 99 11600 (1961) 3 (1956) 933 19 34 56 61 174 549 803 2580 6640
2026-05-07 11:30 3.86 99 11600 (1961) 3 (1956) 933 19 34 56 61 174 549 803 2580 6640
2026-05-07 10:30 3.86 99 11600 (1961) 3 (1956) 933 19 34 56 61 174 549 803 2580 6640
2026-05-07 09:30 3.87 100 11600 (1961) 3 (1956) 933 19 34 56 61 174 549 803 2580 6640
2026-05-07 08:30 3.88 102 11600 (1961) 3 (1956) 933 19 34 56 61 174 549 803 2580 6640
2026-05-07 07:30 3.88 102 11600 (1961) 3 (1956) 933 19 34 56 61 174 549 803 2580 6640
2026-05-07 06:30 3.88 102 11600 (1961) 3 (1956) 933 19 34 56 61 174 549 803 2580 6640
2026-05-07 05:30 3.88 102 11600 (1961) 3 (1956) 933 19 34 56 61 174 549 803 2580 6640
2026-05-07 04:30 3.88 102 11600 (1961) 3 (1956) 933 19 34 56 61 174 549 803 2580 6640
2026-05-07 03:30 3.89 103 11600 (1961) 3 (1956) 933 19 34 56 61 174 549 803 2580 6640
2026-05-07 02:30 3.89 103 11600 (1961) 3 (1956) 933 19 34 56 61 174 549 803 2580 6640
2026-05-07 01:30 3.90 104 11600 (1961) 3 (1956) 933 19 34 56 61 174 549 803 2580 6640
2026-05-07 00:30 3.90 104 11600 (1961) 3 (1956) 933 19 34 56 61 174 549 803 2580 6640
2026-05-06 23:30 3.90 104 11600 (1961) 3 (1956) 933 19 34 56 61 174 549 803 2580 6640
2026-05-06 22:30 3.91 106 21200 (1961) 4 (1956) 863 20 39 62 69 155 560 722 1290 5010
2026-05-06 21:30 3.91 106 21200 (1961) 4 (1956) 863 20 39 62 69 155 560 722 1290 5010
2026-05-06 20:30 3.91 106 21200 (1961) 4 (1956) 863 20 39 62 69 155 560 722 1290 5010
2026-05-06 19:30 3.91 106 21200 (1961) 4 (1956) 863 20 39 62 69 155 560 722 1290 5010
2026-05-06 18:30 3.92 107 21200 (1961) 4 (1956) 863 20 39 62 69 155 560 722 1290 5010
2026-05-06 17:30 3.93 109 21200 (1961) 4 (1956) 863 20 39 62 69 155 560 722 1290 5010
2026-05-06 16:30 3.93 109 21200 (1961) 4 (1956) 863 20 39 62 69 155 560 722 1290 5010
2026-05-06 15:30 3.93 109 21200 (1961) 4 (1956) 863 20 39 62 69 155 560 722 1290 5010
2026-05-06 14:30 3.93 109 21200 (1961) 4 (1956) 863 20 39 62 69 155 560 722 1290 5010
2026-05-06 13:30 3.93 109 21200 (1961) 4 (1956) 863 20 39 62 69 155 560 722 1290 5010
2026-05-06 12:30 3.94 110 21200 (1961) 4 (1956) 863 20 39 62 69 155 560 722 1290 5010
2026-05-06 11:30 3.95 112 21200 (1961) 4 (1956) 863 20 39 62 69 155 560 722 1290 5010
2026-05-06 10:30 3.95 112 21200 (1961) 4 (1956) 863 20 39 62 69 155 560 722 1290 5010
2026-05-06 09:30 3.95 112 21200 (1961) 4 (1956) 863 20 39 62 69 155 560 722 1290 5010
2026-05-06 08:30 3.95 112 21200 (1961) 4 (1956) 863 20 39 62 69 155 560 722 1290 5010
2026-05-06 07:30 3.95 112 21200 (1961) 4 (1956) 863 20 39 62 69 155 560 722 1290 5010
2026-05-06 06:30 3.96 113 21200 (1961) 4 (1956) 863 20 39 62 69 155 560 722 1290 5010
2026-05-06 05:30 3.96 113 21200 (1961) 4 (1956) 863 20 39 62 69 155 560 722 1290 5010
2026-05-06 04:30 3.96 113 21200 (1961) 4 (1956) 863 20 39 62 69 155 560 722 1290 5010
2026-05-06 03:30 3.97 115 21200 (1961) 4 (1956) 863 20 39 62 69 155 560 722 1290 5010
2026-05-06 02:30 3.97 115 21200 (1961) 4 (1956) 863 20 39 62 69 155 560 722 1290 5010
2026-05-06 01:30 3.97 115 21200 (1961) 4 (1956) 863 20 39 62 69 155 560 722 1290 5010
2026-05-06 00:30 3.97 115 21200 (1961) 4 (1956) 863 20 39 62 69 155 560 722 1290 5010
2026-05-05 23:30 3.97 115 21200 (1961) 4 (1956) 863 20 39 62 69 155 560 722 1290 5010
2026-05-05 22:30 3.98 117 9090 (1999) 3 (1956) 680 22 40 68 72 160 461 640 1670 4340
2026-05-05 21:30 3.97 115 9090 (1999) 3 (1956) 680 22 40 68 72 160 461 640 1670 4340
2026-05-05 20:30 3.96 113 9090 (1999) 3 (1956) 680 22 40 68 72 160 461 640 1670 4340
2026-05-05 19:30 3.97 115 9090 (1999) 3 (1956) 680 22 40 68 72 160 461 640 1670 4340
2026-05-05 18:30 3.97 115 9090 (1999) 3 (1956) 680 22 40 68 72 160 461 640 1670 4340
2026-05-05 17:30 3.97 115 9090 (1999) 3 (1956) 680 22 40 68 72 160 461 640 1670 4340
2026-05-05 16:30 3.98 117 9090 (1999) 3 (1956) 680 22 40 68 72 160 461 640 1670 4340
2026-05-05 15:30 3.98 117 9090 (1999) 3 (1956) 680 22 40 68 72 160 461 640 1670 4340
2026-05-05 14:30 3.99 118 9090 (1999) 3 (1956) 680 22 40 68 72 160 461 640 1670 4340
2026-05-05 13:30 3.99 118 9090 (1999) 3 (1956) 680 22 40 68 72 160 461 640 1670 4340
2026-05-05 12:30 4.00 120 9090 (1999) 3 (1956) 680 22 40 68 72 160 461 640 1670 4340
2026-05-05 11:30 4.00 120 9090 (1999) 3 (1956) 680 22 40 68 72 160 461 640 1670 4340
2026-05-05 10:30 4.01 121 9090 (1999) 3 (1956) 680 22 40 68 72 160 461 640 1670 4340
2026-05-05 09:30 4.01 121 9090 (1999) 3 (1956) 680 22 40 68 72 160 461 640 1670 4340
2026-05-05 08:30 4.02 123 9090 (1999) 3 (1956) 680 22 40 68 72 160 461 640 1670 4340
2026-05-05 07:30 4.02 123 9090 (1999) 3 (1956) 680 22 40 68 72 160 461 640 1670 4340
2026-05-05 06:30 4.03 125 9090 (1999) 3 (1956) 680 22 40 68 72 160 461 640 1670 4340
2026-05-05 05:30 4.03 125 9090 (1999) 3 (1956) 680 22 40 68 72 160 461 640 1670 4340
2026-05-05 04:30 4.04 126 9090 (1999) 3 (1956) 680 22 40 68 72 160 461 640 1670 4340
2026-05-05 03:30 4.05 128 9090 (1999) 3 (1956) 680 22 40 68 72 160 461 640 1670 4340
2026-05-05 02:30 4.04 126 9090 (1999) 3 (1956) 680 22 40 68 72 160 461 640 1670 4340
2026-05-05 01:30 4.05 128 9090 (1999) 3 (1956) 680 22 40 68 72 160 461 640 1670 4340
2026-05-05 00:30 4.05 128 9090 (1999) 3 (1956) 680 22 40 68 72 160 461 640 1670 4340
2026-05-04 23:30 4.06 129 9090 (1999) 3 (1956) 680 22 40 68 72 160 461 640 1670 4340
2026-05-04 22:30 4.07 130 9240 (2017) 3 (1956) 572 19 32 72 76 170 492 622 1350 3110
2026-05-04 21:30 4.07 130 9240 (2017) 3 (1956) 572 19 32 72 76 170 492 622 1350 3110
2026-05-04 20:30 4.08 132 9240 (2017) 3 (1956) 572 19 32 72 76 170 492 622 1350 3110
2026-05-04 19:30 4.08 132 9240 (2017) 3 (1956) 572 19 32 72 76 170 492 622 1350 3110
2026-05-04 18:30 4.09 133 9240 (2017) 3 (1956) 572 19 32 72 76 170 492 622 1350 3110
2026-05-04 17:30 4.09 133 9240 (2017) 3 (1956) 572 19 32 72 76 170 492 622 1350 3110
2026-05-04 16:30 4.10 134 9240 (2017) 3 (1956) 572 19 32 72 76 170 492 622 1350 3110
2026-05-04 15:30 4.11 136 9240 (2017) 3 (1956) 572 19 32 72 76 170 492 622 1350 3110
2026-05-04 14:30 4.11 136 9240 (2017) 3 (1956) 572 19 32 72 76 170 492 622 1350 3110
2026-05-04 13:30 4.11 136 9240 (2017) 3 (1956) 572 19 32 72 76 170 492 622 1350 3110
2026-05-04 12:30 4.12 137 9240 (2017) 3 (1956) 572 19 32 72 76 170 492 622 1350 3110
2026-05-04 11:30 4.12 137 9240 (2017) 3 (1956) 572 19 32 72 76 170 492 622 1350 3110
2026-05-04 10:30 4.13 139 9240 (2017) 3 (1956) 572 19 32 72 76 170 492 622 1350 3110
2026-05-04 09:30 4.13 139 9240 (2017) 3 (1956) 572 19 32 72 76 170 492 622 1350 3110
2026-05-04 08:30 4.13 139 9240 (2017) 3 (1956) 572 19 32 72 76 170 492 622 1350 3110
2026-05-04 07:30 4.14 140 9240 (2017) 3 (1956) 572 19 32 72 76 170 492 622 1350 3110
2026-05-04 06:30 4.14 140 9240 (2017) 3 (1956) 572 19 32 72 76 170 492 622 1350 3110
2026-05-04 05:30 4.14 140 9240 (2017) 3 (1956) 572 19 32 72 76 170 492 622 1350 3110
2026-05-04 04:30 4.14 140 9240 (2017) 3 (1956) 572 19 32 72 76 170 492 622 1350 3110
2026-05-04 03:30 4.15 141 9240 (2017) 3 (1956) 572 19 32 72 76 170 492 622 1350 3110
2026-05-04 02:30 4.16 143 9240 (2017) 3 (1956) 572 19 32 72 76 170 492 622 1350 3110
2026-05-04 01:30 4.16 143 9240 (2017) 3 (1956) 572 19 32 72 76 170 492 622 1350 3110
2026-05-04 00:30 4.16 143 9240 (2017) 3 (1956) 572 19 32 72 76 170 492 622 1350 3110
2026-05-03 23:30 4.17 144 9240 (2017) 3 (1956) 572 19 32 72 76 170 492 622 1350 3110
2026-05-03 22:30 4.17 144 5510 (2019) 4 (1956) 618 19 33 68 79 200 557 778 2050 3670
2026-05-03 21:30 4.18 146 5510 (2019) 4 (1956) 618 19 33 68 79 200 557 778 2050 3670
2026-05-03 20:30 4.18 146 5510 (2019) 4 (1956) 618 19 33 68 79 200 557 778 2050 3670
2026-05-03 19:30 4.19 147 5510 (2019) 4 (1956) 618 19 33 68 79 200 557 778 2050 3670
2026-05-03 18:30 4.19 147 5510 (2019) 4 (1956) 618 19 33 68 79 200 557 778 2050 3670
2026-05-03 17:30 4.20 149 5510 (2019) 4 (1956) 618 19 33 68 79 200 557 778 2050 3670
2026-05-03 16:30 4.20 149 5510 (2019) 4 (1956) 618 19 33 68 79 200 557 778 2050 3670
2026-05-03 15:30 4.21 150 5510 (2019) 4 (1956) 618 19 33 68 79 200 557 778 2050 3670
2026-05-03 14:30 4.22 152 5510 (2019) 4 (1956) 618 19 33 68 79 200 557 778 2050 3670
2026-05-03 13:30 4.22 152 5510 (2019) 4 (1956) 618 19 33 68 79 200 557 778 2050 3670
2026-05-03 12:30 4.23 153 5510 (2019) 4 (1956) 618 19 33 68 79 200 557 778 2050 3670
2026-05-03 11:30 4.23 153 5510 (2019) 4 (1956) 618 19 33 68 79 200 557 778 2050 3670
2026-05-03 10:30 4.24 154 5510 (2019) 4 (1956) 618 19 33 68 79 200 557 778 2050 3670
2026-05-03 09:30 4.24 154 5510 (2019) 4 (1956) 618 19 33 68 79 200 557 778 2050 3670
2026-05-03 08:30 4.25 156 5510 (2019) 4 (1956) 618 19 33 68 79 200 557 778 2050 3670
2026-05-03 07:30 4.26 158 5510 (2019) 4 (1956) 618 19 33 68 79 200 557 778 2050 3670
2026-05-03 06:30 4.26 158 5510 (2019) 4 (1956) 618 19 33 68 79 200 557 778 2050 3670
2026-05-03 05:30 4.27 159 5510 (2019) 4 (1956) 618 19 33 68 79 200 557 778 2050 3670
2026-05-03 04:30 4.28 161 5510 (2019) 4 (1956) 618 19 33 68 79 200 557 778 2050 3670
2026-05-03 03:30 4.28 161 5510 (2019) 4 (1956) 618 19 33 68 79 200 557 778 2050 3670
2026-05-03 02:30 4.29 162 5510 (2019) 4 (1956) 618 19 33 68 79 200 557 778 2050 3670
2026-05-03 01:30 4.30 164 5510 (2019) 4 (1956) 618 19 33 68 79 200 557 778 2050 3670
2026-05-03 00:30 4.31 165 5510 (2019) 4 (1956) 618 19 33 68 79 200 557 778 2050 3670
2026-05-02 23:30 4.31 165 5510 (2019) 4 (1956) 618 19 33 68 79 200 557 778 2050 3670

A total of 177 rows are displayed for years 1923 through 2025.